Weather History for EHGG - June, 2014

Change the Weather History Date:

Tuesday, June 10, 2014

  Actual Average Record
Temperature  
Mean Temperature 70 °F -  
Max Temperature 81 °F 68 °F 81 °F (2014)
Min Temperature 60 °F 50 °F 41 °F (2011)
Cooling Degree Days 6    
Growing Degree Days 20 (Base 50)    
Moisture  
Dew Point 63 °F    
Average Humidity 78    
Maximum Humidity 100    
Minimum Humidity 51    
Precipitation  
Precipitation 0.00 in 0.09 in - ()
Sea Level Pressure  
Sea Level Pressure 30.05 in    
Wind  
Wind Speed 6 mph ()    
Max Wind Speed 26 mph    
Max Gust Speed 41 mph    
Visibility 7.5 miles    
Events Fog , Rain , Thunderstorm    
Averages and records for this station are not official NWS values.
T = Trace of Precipitation, MM = Missing Value Source: Averaged Metar Reports

Daily Weather History Graph

Daily Weather History Graph

Search for Another Location

Airport or City:

Trip Planner

Search our weather history database for the weather conditions in past years. The results will help you decide how hot, cold, wet, or windy it might be!

Date:

Astronomy

Jun. 10, 2014 Rise Set
Actual Time 5:07 AM CEST 9:58 PM CEST
Civil Twilight 4:16 AM CEST 10:49 PM CEST
Nautical Twilight 2:51 AM CEST 12:16 AM CEST
Astronomical Twilight Sun does not set Sun does not set
Moon 6:44 PM CEST (6/10) 3:30 AM CEST (6/10)
Length of Visible Light 18h 32m
Length of Day
16h 50m
Waxing Gibbous, 90% of the Moon is Illuminated
Jun 10
Waxing Gibbous
Jun 13
Full
Jun 19
Last Quarter
Jun 27
New
Jul 5
First Quarter

Hourly Weather History & Observations

Time (CEST) Temp. Heat Index Dew Point Humidity Pressure Visibility Wind Dir Wind Speed Gust Speed Precip Events Conditions
12:00 AM 71 °F - 66 °F 78% 30.01 in 25 mi East 4.5 mph - - Rain Rain
12:25 AM 69.8 °F - 66.2 °F 88% 29.98 in 6.2 mi ENE 5.8 mph - N/A   Unknown
12:55 AM 69.8 °F - 66.2 °F 88% 29.95 in 6.2 mi NNE 8.1 mph - N/A   Unknown
1:00 AM 69 °F - 66 °F 86% 29.99 in 18 mi NNE 4.5 mph - -   Partly Cloudy
1:25 AM 68.0 °F - 66.2 °F 94% 29.98 in 6.2 mi ENE 5.8 mph - N/A   Unknown
1:55 AM 68.0 °F - 64.4 °F 88% 29.95 in 6.2 mi North 3.5 mph - N/A   Unknown
2:00 AM 68 °F - 64 °F 85% 29.98 in 17 mi North 2.2 mph - -   Partly Cloudy
2:25 AM 66.2 °F - 62.6 °F 88% 29.98 in 6.2 mi Variable 2.3 mph - N/A   Unknown
2:55 AM 64.4 °F - 62.6 °F 94% 29.98 in 6.2 mi SSW 2.3 mph - N/A   Unknown
3:00 AM 63 °F - 62 °F 93% 29.99 in 7 mi SW 4.5 mph - -   Scattered Clouds
3:25 AM 62.6 °F - 62.6 °F 100% 29.98 in 3.7 mi WSW 3.5 mph - N/A   Unknown
3:55 AM 60.8 °F - 60.8 °F 100% 29.95 in 0.6 mi WSW 3.5 mph - N/A Fog Fog
4:00 AM 61 °F - 61 °F 99% 29.96 in 0 mi 2.2 mph - - Fog Fog
4:25 AM 62.6 °F - 60.8 °F 94% 29.95 in 0.7 mi Variable 1.2 mph - N/A   Mist
4:55 AM 62.6 °F - 62.6 °F 100% 29.95 in 2.8 mi SE 4.6 mph - N/A   Mist
5:00 AM 63 °F - 63 °F 100% 29.96 in 2 mi SE 6.7 mph - - Fog Fog
5:25 AM 64.4 °F - 62.6 °F 94% 29.98 in 5.0 mi South 5.8 mph - N/A   Unknown
5:55 AM 64.4 °F - 62.6 °F 94% 30.01 in 6.2 mi SSW 6.9 mph - N/A   Unknown
6:00 AM 65 °F - 62 °F 86% 30.04 in 11 mi SW 11.2 mph - -   Partly Cloudy
6:25 AM 66.2 °F - 60.8 °F 83% 30.06 in 6.2 mi SW 26.5 mph 41.4 mph N/A Rain Light Rain
6:55 AM 66.2 °F - 60.8 °F 83% 30.09 in 6.2 mi SW 17.3 mph - N/A   Mostly Cloudy
7:00 AM 66 °F - 61 °F 78% 30.09 in 22 mi WSW 13.4 mph - - Rain Rain
7:25 AM 64.4 °F - 60.8 °F 88% 30.06 in 6.2 mi SW 10.4 mph - N/A Rain Light Rain Showers
7:55 AM 64.4 °F - 60.8 °F 88% 30.04 in 6.2 mi WSW 4.6 mph - N/A Rain Light Rain
8:00 AM 65 °F - 61 °F 83% 30.06 in 22 mi West 4.5 mph - - Rain Rain
8:25 AM 64.4 °F - 62.6 °F 94% 30.04 in 6.2 mi Variable 2.3 mph - N/A   Unknown
8:55 AM 66.2 °F - 62.6 °F 88% 30.04 in 6.2 mi ESE 8.1 mph - N/A   Unknown
9:00 AM 66 °F - 63 °F 88% 30.04 in 16 mi ESE 8.9 mph - -   Partly Cloudy
9:25 AM 68.0 °F - 64.4 °F 88% 30.01 in 6.2 mi East 12.7 mph - N/A   Unknown
9:55 AM 69.8 °F - 62.6 °F 78% 30.01 in 6.2 mi ESE 10.4 mph - N/A   Unknown
10:00 AM 70 °F - 63 °F 72% 30.01 in 19 mi East 8.9 mph - -  
10:25 AM 71.6 °F - 62.6 °F 73% 30.01 in 6.2 mi East 8.1 mph - N/A   Unknown
10:55 AM 73.4 °F - 64.4 °F 73% 30.01 in 6.2 mi ESE 4.6 mph - N/A   Unknown
11:00 AM 74 °F - 64 °F 65% 30.02 in 22 mi ESE 4.5 mph - -  
11:25 AM 75.2 °F - 64.4 °F 69% 30.01 in 6.2 mi SE 4.6 mph - N/A   Unknown
11:55 AM 77.0 °F - 62.6 °F 61% 30.01 in 6.2 mi SSW 6.9 mph - N/A   Unknown
12:00 PM 78 °F - 63 °F 51% 30.04 in 19 mi SW 6.7 mph - -  
12:25 PM 77.0 °F - 62.6 °F 61% 30.04 in 6.2 mi WSW 6.9 mph - N/A   Unknown
12:55 PM 80.6 °F 82.3 °F 64.4 °F 58% 30.04 in 6.2 mi SSW 6.9 mph - N/A   Unknown
1:00 PM 80 °F - 65 °F 51% 30.04 in 22 mi SW 6.7 mph - -  
1:25 PM 80.6 °F 81.8 °F 62.6 °F 54% 30.04 in 6.2 mi SW 8.1 mph - N/A   Unknown
1:55 PM 80.6 °F 82.7 °F 66.2 °F 61% 30.04 in 6.2 mi WSW 8.1 mph - N/A   Unknown
2:00 PM 80 °F - 65 °F 52% 30.06 in 22 mi West 8.9 mph - - Thunderstorm Light Thunderstorm
2:25 PM 80.6 °F 82.7 °F 66.2 °F 61% 30.04 in 6.2 mi West 6.9 mph - N/A   Partly Cloudy
2:55 PM 78.8 °F - 64.4 °F 61% 30.06 in 6.2 mi West 9.2 mph - N/A   Scattered Clouds
3:00 PM 80 °F - 67 °F 55% 30.08 in 17 mi West 8.9 mph - -   Scattered Clouds
3:25 PM 77.0 °F - 64.4 °F 65% 30.06 in 6.2 mi WNW 10.4 mph - N/A   Mostly Cloudy
3:55 PM 77.0 °F - 64.4 °F 65% 30.06 in 6.2 mi West 9.2 mph - N/A   Partly Cloudy
4:00 PM 78 °F - 64 °F 53% 30.08 in 12 mi West 8.9 mph - -   Mostly Cloudy
4:25 PM 78.8 °F - 66.2 °F 65% 30.06 in 6.2 mi WNW 9.2 mph - N/A   Partly Cloudy
4:55 PM 77.0 °F - 64.4 °F 65% 30.06 in 6.2 mi West 9.2 mph - N/A   Unknown
5:00 PM 77 °F - 64 °F 54% 30.10 in 14 mi West 11.2 mph - -   Partly Cloudy
5:25 PM 75.2 °F - 62.6 °F 65% 30.09 in 6.2 mi West 10.4 mph - N/A   Mostly Cloudy
5:55 PM 73.4 °F - 62.6 °F 69% 30.09 in 6.2 mi West 12.7 mph - N/A   Mostly Cloudy
6:00 PM 73 °F - 62 °F 61% 30.12 in 19 mi West 8.9 mph - -   Scattered Clouds
6:25 PM 71.6 °F - 60.8 °F 69% 30.09 in 6.2 mi West 8.1 mph - N/A   Scattered Clouds
6:55 PM 71.6 °F - 62.6 °F 73% 30.09 in 6.2 mi West 5.8 mph - N/A   Mostly Cloudy
7:00 PM 71 °F - 62 °F 65% 30.11 in 22 mi West 2.2 mph - - Rain Rain
7:25 PM 71.6 °F - 62.6 °F 73% 30.09 in 6.2 mi Variable 1.2 mph - N/A Rain Light Rain
7:55 PM 69.8 °F - 64.4 °F 83% 30.09 in 6.2 mi Variable 2.3 mph - N/A   Partly Cloudy
8:00 PM 70 °F - 64 °F 74% 30.12 in 25 mi WNW 4.5 mph - - Rain Rain
8:25 PM 69.8 °F - 62.6 °F 78% 30.09 in 6.2 mi West 5.8 mph - N/A   Scattered Clouds
8:55 PM 68.0 °F - 62.6 °F 83% 30.12 in 6.2 mi WSW 4.6 mph - N/A   Unknown
9:00 PM 69 °F - 62 °F 71% 30.13 in 22 mi SSW 4.5 mph - - Rain Rain
9:25 PM 68.0 °F - 62.6 °F 83% 30.12 in 6.2 mi South 3.5 mph - N/A Rain Light Rain
9:55 PM 66.2 °F - 62.6 °F 88% 30.12 in 6.2 mi South 5.8 mph - N/A   Partly Cloudy
10:00 PM 66 °F - 62 °F 82% 30.15 in 25 mi South 6.7 mph - - Rain Rain
10:25 PM 66.2 °F - 60.8 °F 83% 30.15 in 6.2 mi South 5.8 mph - N/A   Unknown
10:55 PM 62.6 °F - 60.8 °F 94% 30.15 in 6.2 mi SW 4.6 mph - N/A   Unknown
11:00 PM 63 °F - 60 °F 87% 30.16 in 17 mi SW 4.5 mph - -   Partly Cloudy
11:25 PM 62.6 °F - 60.8 °F 94% 30.15 in 6.2 mi SW 4.6 mph - N/A   Unknown
11:55 PM 62.6 °F - 60.8 °F 94% 30.15 in 6.2 mi SSW 4.6 mph - N/A   Unknown